[[{"header":{"parameterUnit":"m.s-1","parameterCategory":1,"la1":30.2991,"la2":30.254,"lo1":-89.0895,"lo2":-89.0444,"dy":0.0017,"dx":0.0017,"nx":28,"ny":28,"refTime":"2023-07-24T21:00:00:Z","depth":0,"parameterNumber":2,"parameterNumberName":"U-component_of_WINDS"},"data":[0,0,0,0,0,0,0,0,0,0,0,0,0,0,0,0,0,0,0,0,0,0,0,0,0,0,0,0,0,0,0,0,0,0,0,0,0,0,0,0,0,0,0,0,0,0,0,0,0,0,0,0,0,0,0,0,0,0,1.6013,1.6014,0,1.6031,1.6032,1.6032,1.6005,1.6004,1.6003,1.6002,1.6021,1.6023,1.6024,0,0,0,0,0,0,0,0,0,0,0,0,0,1.5958,1.5959,1.6013,1.6014,1.6014,1.6031,1.6032,1.6032,1.6005,1.6004,1.6002,1.6001,1.6021,1.6023,1.6024,0,0,0,0,0,0,0,0,0,0,0,0,0,1.598,1.596,1.6013,1.6002,1.6002,1.6031,1.6032,1.6032,1.6005,1.6004,1.6002,1.6001,1.602,1.6022,1.6024,1.6066,0,0,1.6031,1.6032,0,0,0,0,0,0,0,0,1.5979,1.5982,1.6004,1.6003,1.6002,1.6014,1.6019,1.6043,1.6005,1.6004,1.6002,1.6,1.602,1.6022,1.6029,1.6067,1.6068,1.6031,1.6032,1.6033,1.6034,0,0,0,0,0,0,0,1.5977,1.5981,1.6021,1.6004,1.6003,1.5997,1.5999,1.6024,1.602,1.6004,1.6002,1.6004,1.602,1.6027,1.6029,1.6068,1.6031,1.6033,1.6034,1.6035,1.6143,1.6145,0,0,0,0,0,0,1.5977,1.598,1.602,1.6021,1.5987,1.6,1.6001,1.6012,1.6019,1.6019,1.6005,1.6003,1.6024,1.6027,1.603,1.608,1.6033,1.6035,1.6036,1.6142,1.6144,1.6146,0,0,0,0,0,0,1.5976,1.5981,1.6019,1.6,1.6004,1.6002,1.6014,1.6013,1.602,1.6021,1.602,1.6013,1.6023,1.6027,1.6058,1.608,1.6036,1.6038,1.614,1.6142,1.6145,1.618,0,0,0,0,0,0,1.5974,1.598,1.5995,1.6001,1.6006,1.6046,1.6016,1.6014,1.6024,1.6021,1.6028,1.6028,1.6022,1.6055,1.606,1.6082,1.604,1.6138,1.6141,1.6144,1.6177,1.6183,1.6189,0,0,0,0,0,1.5972,1.6004,1.5996,1.6001,1.6024,1.6047,1.605,1.6043,1.6026,1.6041,1.6042,1.6028,1.6077,1.6058,1.6063,1.6087,1.6136,1.614,1.6144,1.6174,1.6182,1.6189,0,0,0,0,0,0,1.6002,1.6005,1.5996,1.603,1.6039,1.6043,1.6062,1.6051,1.6065,1.6061,1.6052,1.6054,1.6087,1.609,1.6069,1.6129,1.6104,1.6109,1.6125,1.6133,1.6139,1.6137,1.6042,0,0,0,0,0,1.6012,1.603,1.6032,1.6063,1.6068,1.6064,1.6074,1.6068,1.6076,1.608,1.6082,1.6092,1.611,1.6121,1.6138,1.6178,1.618,1.6197,1.6203,1.6208,1.6212,1.6235,1.6243,1.6158,1.6157,1.6157,0,0,1.6034,1.6038,1.605,1.6069,1.6075,1.6095,1.6067,1.6089,1.6104,1.6083,1.6112,1.6115,1.6125,1.6161,1.6177,1.6165,1.6236,1.6212,1.6216,1.6218,1.624,1.6248,1.6255,1.616,1.616,1.6159,0,0,1.6084,1.6089,1.6115,1.6122,1.6131,1.6129,1.6136,1.6142,1.6143,1.6172,1.6158,1.6176,1.6206,1.6214,1.6223,1.6278,1.6266,1.6284,1.6316,1.6338,1.6345,1.6351,1.6372,1.6379,1.6288,1.6288,1.6289,0,1.611,1.6139,1.613,1.6153,1.6163,1.6145,1.6173,1.618,1.6194,1.6202,1.6188,1.6227,1.6232,1.627,1.6284,1.6291,1.6299,1.6283,1.6344,1.635,1.6356,1.6376,1.6383,1.6291,1.629,1.629,1.629,0,1.6171,1.6191,1.6212,1.6226,1.6238,1.6263,1.626,1.6273,1.6266,1.6266,1.6297,1.6304,1.6322,1.633,1.6323,1.6368,1.6361,1.6346,1.6321,1.6366,1.6385,1.6392,1.6294,1.6293,1.6292,1.6292,0,0,1.6238,1.6249,1.6257,1.6264,1.6275,1.629,1.6316,1.6334,1.6346,1.6357,1.6378,1.6406,1.6393,1.6402,1.6396,1.6416,1.6461,1.6399,1.6399,1.6411,1.6513,1.6524,1.6533,1.6454,1.6455,1.6456,1.6512,0,1.6289,1.6332,1.6326,1.6368,1.6388,1.6373,1.6395,1.6404,1.6406,1.6423,1.6424,1.6444,1.6425,1.6431,1.645,1.6452,1.6482,1.6448,1.6475,1.6476,1.6473,1.6542,1.6554,1.6606,1.6519,1.652,1.6521,0,1.6353,1.6367,1.6411,1.642,1.6428,1.6448,1.6465,1.6481,1.6492,1.6492,1.6504,1.6495,1.6522,1.6497,1.6534,1.6511,1.6522,1.6525,1.6527,1.6529,1.6501,1.6547,1.6623,1.6631,1.6532,1.6531,1.6531,0,1.6399,1.6429,1.646,1.6466,1.6477,1.6492,1.6497,1.6507,1.6518,1.6533,1.6541,1.6559,1.6569,1.6583,1.6581,1.6562,1.6619,1.6594,1.6621,1.6621,1.6633,1.6632,1.6712,1.664,1.664,1.664,1.6639,0,1.6456,1.6484,1.6481,1.65,1.6531,1.6525,1.6556,1.6559,1.6569,1.6589,1.6577,1.6596,1.6591,1.661,1.6608,1.6641,1.6645,1.6646,1.6645,1.6647,1.6647,1.6654,1.6651,1.6642,1.6641,1.6641,1.664,0,1.6512,1.6511,1.6544,1.6552,1.6555,1.6578,1.6585,1.6603,1.6604,1.663,1.6636,1.6637,1.666,1.6659,1.6684,1.6683,1.6723,1.6717,1.6719,1.6718,1.6745,1.6743,1.6832,1.6844,1.6764,1.6765,1.6765,0,1.6549,1.657,1.6581,1.6594,1.66,1.662,1.6632,1.6628,1.6641,1.6656,1.6673,1.6695,1.6712,1.6749,1.6753,1.6772,1.6768,1.6798,1.6771,1.6773,1.6769,1.6768,1.6771,1.6803,1.6804,1.6805,1.6805,0,1.6614,1.6613,1.6631,1.6649,1.6664,1.6678,1.6691,1.6702,1.6699,1.6715,1.6738,1.6751,1.6777,1.6799,1.6819,1.6825,1.6815,1.6814,1.6822,1.6824,1.6824,1.6825,1.6734,1.6812,1.6811,1.6811,1.681,1.681,1.6662,1.6681,1.6692,1.6713,1.6722,1.6735,1.6753,1.6757,1.6775,1.6797,1.6793,1.6819,1.6831,1.6856,1.6865,1.6886,1.6875,1.6886,1.6889,1.6891,1.6895,1.6821,1.6889,1.6889,1.6889,1.6889,1.6889,0,1.6728,1.6734,1.6753,1.6772,1.6789,1.6778,1.6793,1.6807,1.683,1.6843,1.686,1.6887,1.6909,1.6915,1.6937,1.6952,1.6949,1.6958,1.6957,1.6959,1.6903,1.6894,1.6961,1.6961,1.6961,1.6961,1.6961,1.6961,1.6763,1.6795,1.6796,1.6832,1.6839,1.6864,1.6874,1.6886,1.6896,1.6927,1.6945,1.6949,1.6959,1.6981,1.7001,1.7003,1.7011,1.7023,1.7023,1.697,1.6963,1.6956,1.6948,1.7025,1.7025,1.7077,1.7078,1.7078]},{"header":{"parameterUnit":"m.s-1","parameterCategory":1,"la1":30.2991,"la2":30.254,"lo1":-89.0895,"lo2":-89.0444,"dy":0.0017,"dx":0.0017,"nx":28,"ny":28,"refTime":"2023-07-24T21:00:00:Z","depth":0,"parameterNumber":3,"parameterNumberName":"V-component_of_WINDS"},"data":[0,0,0,0,0,0,0,0,0,0,0,0,0,0,0,0,0,0,0,0,0,0,0,0,0,0,0,0,0,0,0,0,0,0,0,0,0,0,0,0,0,0,0,0,0,0,0,0,0,0,0,0,0,0,0,0,0,0,-1.5655,-1.5655,0,-1.5671,-1.5671,-1.5671,-1.5678,-1.5678,-1.5678,-1.5678,-1.5692,-1.5693,-1.5693,0,0,0,0,0,0,0,0,0,0,0,0,0,-1.5629,-1.563,-1.5655,-1.5655,-1.5655,-1.5671,-1.5671,-1.5671,-1.5678,-1.5678,-1.5678,-1.5678,-1.5692,-1.5693,-1.5693,0,0,0,0,0,0,0,0,0,0,0,0,0,-1.5642,-1.563,-1.5655,-1.566,-1.5661,-1.5671,-1.5671,-1.5671,-1.5678,-1.5678,-1.5678,-1.5678,-1.5692,-1.5693,-1.5693,-1.5698,0,0,-1.5695,-1.5696,0,0,0,0,0,0,0,0,-1.5642,-1.5643,-1.5659,-1.566,-1.5661,-1.5673,-1.5668,-1.568,-1.5678,-1.5672,-1.5678,-1.5678,-1.5686,-1.5687,-1.569,-1.5699,-1.5699,-1.5695,-1.5696,-1.5696,-1.5696,0,0,0,0,0,0,0,-1.5641,-1.5643,-1.5661,-1.566,-1.566,-1.5662,-1.5664,-1.567,-1.5679,-1.5672,-1.5673,-1.5675,-1.5686,-1.5689,-1.569,-1.57,-1.5695,-1.5696,-1.5696,-1.5696,-1.5716,-1.5716,0,0,0,0,0,0,-1.5639,-1.5642,-1.566,-1.5661,-1.5651,-1.5663,-1.5665,-1.5669,-1.5679,-1.568,-1.5675,-1.5675,-1.5688,-1.569,-1.5691,-1.5699,-1.5696,-1.5697,-1.5697,-1.5716,-1.5716,-1.5716,0,0,0,0,0,0,-1.5638,-1.5641,-1.566,-1.5652,-1.5654,-1.5663,-1.5668,-1.5669,-1.5672,-1.5681,-1.5682,-1.5676,-1.5688,-1.569,-1.5697,-1.5699,-1.5697,-1.5697,-1.5716,-1.5716,-1.5716,-1.5714,0,0,0,0,0,0,-1.5638,-1.564,-1.5642,-1.5652,-1.5655,-1.5666,-1.5668,-1.5669,-1.5674,-1.5674,-1.5683,-1.5684,-1.5688,-1.5696,-1.5698,-1.57,-1.5698,-1.5716,-1.5716,-1.5716,-1.5714,-1.5714,-1.5714,0,0,0,0,0,-1.5637,-1.5639,-1.5642,-1.5644,-1.5657,-1.5666,-1.5667,-1.5673,-1.5674,-1.5676,-1.5682,-1.5684,-1.5699,-1.5697,-1.5699,-1.5701,-1.5715,-1.5716,-1.5716,-1.5714,-1.5714,-1.5714,0,0,0,0,0,0,-1.5628,-1.5641,-1.5644,-1.5649,-1.5657,-1.5667,-1.5669,-1.5673,-1.5679,-1.5679,-1.5686,-1.5688,-1.5695,-1.5699,-1.5696,-1.5708,-1.5708,-1.5708,-1.5705,-1.5705,-1.5706,-1.5705,-1.5698,0,0,0,0,0,-1.5627,-1.5633,-1.5644,-1.5648,-1.5652,-1.566,-1.5664,-1.5668,-1.5675,-1.5678,-1.5684,-1.5691,-1.5698,-1.5702,-1.5708,-1.5715,-1.5718,-1.5718,-1.5718,-1.5718,-1.5719,-1.5725,-1.5726,-1.5717,-1.5717,-1.5717,0,0,-1.5624,-1.5632,-1.5635,-1.5647,-1.5652,-1.5659,-1.5662,-1.5668,-1.5674,-1.5679,-1.5687,-1.5692,-1.57,-1.5707,-1.5711,-1.5711,-1.5722,-1.5718,-1.5719,-1.5719,-1.5725,-1.5726,-1.5727,-1.5718,-1.5718,-1.5718,0,0,-1.5623,-1.5629,-1.5635,-1.5641,-1.5651,-1.5657,-1.5659,-1.5669,-1.5673,-1.5682,-1.5686,-1.5693,-1.5703,-1.571,-1.5714,-1.572,-1.5722,-1.5721,-1.5722,-1.5729,-1.5729,-1.573,-1.5733,-1.5734,-1.5722,-1.5722,-1.5722,0,-1.5618,-1.5629,-1.5636,-1.5644,-1.5649,-1.5656,-1.5663,-1.5669,-1.5679,-1.5683,-1.5684,-1.5699,-1.5705,-1.5716,-1.5717,-1.572,-1.5723,-1.572,-1.5729,-1.5729,-1.573,-1.5734,-1.5735,-1.5722,-1.5722,-1.5722,-1.5722,0,-1.5623,-1.5631,-1.5634,-1.5647,-1.5653,-1.5659,-1.5669,-1.5674,-1.5679,-1.5685,-1.5695,-1.5702,-1.5712,-1.5714,-1.5718,-1.5726,-1.5726,-1.5727,-1.5727,-1.5731,-1.5734,-1.5735,-1.5722,-1.5722,-1.5722,-1.5722,0,0,-1.5615,-1.5634,-1.5635,-1.5643,-1.5656,-1.5662,-1.5669,-1.568,-1.5685,-1.5693,-1.5701,-1.5711,-1.5714,-1.5719,-1.5724,-1.5729,-1.5735,-1.573,-1.573,-1.5732,-1.5747,-1.5747,-1.5748,-1.5738,-1.5738,-1.5738,-1.5747,0,-1.5616,-1.5631,-1.564,-1.5651,-1.566,-1.5668,-1.5675,-1.5684,-1.5691,-1.5699,-1.5707,-1.5715,-1.5716,-1.572,-1.5726,-1.5733,-1.5739,-1.5733,-1.5745,-1.5746,-1.5744,-1.575,-1.5749,-1.5757,-1.5749,-1.5749,-1.5749,0,-1.5619,-1.563,-1.5643,-1.5658,-1.5661,-1.5668,-1.568,-1.5687,-1.5699,-1.5703,-1.5711,-1.5717,-1.5726,-1.5726,-1.574,-1.5736,-1.5742,-1.5746,-1.5747,-1.5749,-1.5748,-1.5753,-1.576,-1.5761,-1.5751,-1.5751,-1.575,0,-1.5614,-1.5631,-1.5641,-1.5647,-1.5664,-1.5669,-1.5676,-1.5688,-1.5695,-1.5705,-1.571,-1.5721,-1.5727,-1.5736,-1.5745,-1.5743,-1.5759,-1.5758,-1.5764,-1.5763,-1.5766,-1.5766,-1.5775,-1.5769,-1.5769,-1.5769,-1.5769,0,-1.5615,-1.5623,-1.564,-1.5646,-1.5656,-1.5667,-1.5676,-1.5684,-1.5695,-1.5704,-1.5711,-1.5719,-1.573,-1.574,-1.5747,-1.5758,-1.5761,-1.5765,-1.5767,-1.5765,-1.5765,-1.5769,-1.5769,-1.5769,-1.5769,-1.5769,-1.5769,0,-1.561,-1.5621,-1.5634,-1.5651,-1.5655,-1.5662,-1.5676,-1.5683,-1.5692,-1.5703,-1.5706,-1.5719,-1.5732,-1.5742,-1.5757,-1.5762,-1.5774,-1.5776,-1.5771,-1.5772,-1.5778,-1.5777,-1.579,-1.5793,-1.5784,-1.5784,-1.5784,0,-1.561,-1.5616,-1.5635,-1.5642,-1.565,-1.5661,-1.5669,-1.5681,-1.5689,-1.5704,-1.571,-1.5723,-1.5734,-1.5753,-1.5764,-1.5777,-1.5779,-1.5783,-1.5781,-1.578,-1.5781,-1.5781,-1.5782,-1.5783,-1.5783,-1.5783,-1.5783,0,-1.5609,-1.5616,-1.5627,-1.5642,-1.5651,-1.5663,-1.5675,-1.568,-1.5694,-1.5703,-1.5716,-1.5725,-1.5743,-1.5756,-1.5771,-1.5778,-1.5784,-1.5784,-1.5786,-1.5784,-1.5782,-1.5785,-1.5773,-1.5783,-1.5783,-1.5783,-1.5783,-1.5783,-1.5607,-1.5615,-1.563,-1.5644,-1.5654,-1.5666,-1.5675,-1.5685,-1.5697,-1.5713,-1.5719,-1.5734,-1.5748,-1.5768,-1.5776,-1.5788,-1.5788,-1.5791,-1.5792,-1.5792,-1.5793,-1.578,-1.579,-1.579,-1.579,-1.579,-1.579,0,-1.5608,-1.5619,-1.5632,-1.565,-1.5661,-1.5666,-1.5681,-1.5689,-1.5702,-1.5715,-1.5727,-1.5744,-1.5758,-1.5772,-1.5786,-1.5793,-1.5796,-1.5797,-1.5797,-1.5799,-1.5791,-1.5788,-1.5795,-1.5795,-1.5795,-1.5795,-1.5795,-1.5795,-1.561,-1.5624,-1.5633,-1.5653,-1.5664,-1.5679,-1.5687,-1.5698,-1.5709,-1.5728,-1.5741,-1.575,-1.5764,-1.578,-1.5794,-1.5798,-1.5803,-1.5803,-1.5808,-1.58,-1.5799,-1.5799,-1.5796,-1.5804,-1.5804,-1.5815,-1.5815,-1.5815]}]]